• In Uzbekistan
  • List of Countries
  • For 7 days
  • Water Temperature
  • Satellite Maps
  • Weather Map
  • Weather Widgets
  • user-avatar
    Login

    Hourly Weather Khashuri

    Today, 12 December, Tuesday

    Time Temperature Precipitation Wind Pressure Humidity
    00:00 -6°C° 0 mm 2 mps 616 mmHg 74%
    01:00 -6°C° 0 mm 2 mps 616 mmHg 72%
    02:00 -6°C° 0 mm 2 mps 617 mmHg 70%
    03:00 -6°C° 0 mm 3 mps 616 mmHg 67%
    04:00 -6°C° 0 mm 2 mps 616 mmHg 66%
    05:00 -6°C° 0 mm 2 mps 617 mmHg 66%
    06:00 -6°C° 0 mm 2 mps 617 mmHg 65%
    07:00 -5°C° 0 mm 2 mps 617 mmHg 64%
    08:00 -4°C° 0 mm 2 mps 617 mmHg 63%
    09:00 -3°C° 0 mm 2 mps 617 mmHg 63%
    10:00 +1°C° 0 mm 1 mps 618 mmHg 62%
    11:00 +2°C° 0 mm 1 mps 618 mmHg 61%
    12:00 +4°C° 0 mm 1 mps 618 mmHg 61%
    13:00 +4°C° 0 mm 1 mps 618 mmHg 61%
    14:00 +4°C° 0 mm 1 mps 617 mmHg 62%
    15:00 +3°C° 0 mm 1 mps 617 mmHg 63%
    16:00 +2°C° 0 mm 1 mps 617 mmHg 63%
    17:00 -1°C° 0 mm 2 mps 616 mmHg 63%
    18:00 -2°C° 0 mm 2 mps 616 mmHg 62%
    19:00 -3°C° 0 mm 2 mps 616 mmHg 61%
    20:00 -3°C° 0 mm 2 mps 616 mmHg 59%
    21:00 -3°C° 0 mm 2 mps 616 mmHg 57%
    22:00 -3°C° 0 mm 2 mps 616 mmHg 56%
    23:00 -3°C° 0 mm 2 mps 616 mmHg 54%

    Tomorrow, 13 December, Wednesday

    Time Temperature Precipitation Wind Pressure Humidity
    00:00 -3°C° 0 mm 2 mps 616 mmHg 52%
    01:00 -4°C° 0 mm 2 mps 616 mmHg 51%
    02:00 -4°C° 0 mm 2 mps 616 mmHg 50%
    03:00 -4°C° 0 mm 2 mps 615 mmHg 49%
    04:00 -4°C° 0 mm 2 mps 615 mmHg 49%
    05:00 -4°C° 0 mm 2 mps 615 mmHg 48%
    06:00 -4°C° 0 mm 2 mps 615 mmHg 48%
    07:00 -3°C° 0 mm 2 mps 615 mmHg 48%
    08:00 -2°C° 0 mm 2 mps 615 mmHg 48%
    09:00 -2°C° 0 mm 2 mps 615 mmHg 48%
    10:00 +1°C° 0 mm 2 mps 616 mmHg 49%
    11:00 +2°C° 0 mm 2 mps 616 mmHg 50%
    12:00 +4°C° 0 mm 2 mps 616 mmHg 51%
    13:00 +5°C° 0 mm 1 mps 615 mmHg 52%
    14:00 +4°C° 0 mm 1 mps 615 mmHg 53%
    15:00 +4°C° 0 mm 1 mps 615 mmHg 53%
    16:00 +3°C° 0 mm 1 mps 614 mmHg 53%
    17:00 -1°C° 0 mm 2 mps 614 mmHg 52%
    18:00 -2°C° 0 mm 2 mps 614 mmHg 52%
    19:00 -2°C° 0 mm 2 mps 614 mmHg 50%
    20:00 -3°C° 0 mm 2 mps 614 mmHg 49%
    21:00 -3°C° 0 mm 2 mps 614 mmHg 48%
    22:00 -3°C° 0 mm 2 mps 613 mmHg 48%
    23:00 -3°C° 0 mm 2 mps 613 mmHg 47%

    Day after tomorrow, 14 December, Thursday

    Time Temperature Precipitation Wind Pressure Humidity
    00:00 -4°C° 0 mm 2 mps 613 mmHg 47%
    01:00 -4°C° 0 mm 2 mps 613 mmHg 47%
    02:00 -4°C° 0 mm 2 mps 613 mmHg 47%
    03:00 -4°C° 0 mm 2 mps 613 mmHg 47%
    04:00 -4°C° 0 mm 2 mps 613 mmHg 47%
    05:00 -4°C° 0 mm 2 mps 613 mmHg 47%
    06:00 -4°C° 0 mm 2 mps 612 mmHg 47%
    07:00 -4°C° 0 mm 2 mps 613 mmHg 47%
    08:00 -3°C° 0 mm 2 mps 613 mmHg 47%
    09:00 -2°C° 0 mm 2 mps 613 mmHg 47%
    10:00 -1°C° 0 mm 2 mps 613 mmHg 48%
    11:00 +2°C° 0 mm 2 mps 613 mmHg 49%
    12:00 +3°C° 0 mm 2 mps 614 mmHg 50%
    13:00 +3°C° 0 mm 2 mps 613 mmHg 52%
    14:00 +2°C° 0 mm 2 mps 613 mmHg 53%
    15:00 +2°C° 0 mm 2 mps 612 mmHg 55%
    16:00 +1°C° 0 mm 2 mps 612 mmHg 56%
    17:00 -2°C° 0 mm 2 mps 612 mmHg 57%
    18:00 -3°C° 0 mm 2 mps 612 mmHg 57%
    19:00 -3°C° 0 mm 2 mps 611 mmHg 57%
    20:00 -3°C° 0 mm 2 mps 611 mmHg 56%
    21:00 -3°C° 0 mm 2 mps 611 mmHg 56%
    22:00 -4°C° 0 mm 2 mps 611 mmHg 56%
    23:00 -4°C° 0 mm 2 mps 611 mmHg 56%

    15 December, Friday

    Time Temperature Precipitation Wind Pressure Humidity
    00:00 -4°C° 0 mm 2 mps 611 mmHg 57%
    01:00 -4°C° 0 mm 2 mps 611 mmHg 57%
    02:00 -4°C° 0 mm 2 mps 611 mmHg 57%
    03:00 -4°C° 0 mm 2 mps 611 mmHg 57%
    04:00 -4°C° 0 mm 2 mps 611 mmHg 57%
    05:00 -4°C° 0 mm 2 mps 611 mmHg 56%
    06:00 -4°C° 0 mm 2 mps 611 mmHg 56%
    07:00 -3°C° 0 mm 2 mps 612 mmHg 55%
    08:00 -1°C° 0 mm 1 mps 612 mmHg 55%
    09:00 0°C° 0 mm 1 mps 613 mmHg 54%
    10:00 +1°C° 0 mm 1 mps 613 mmHg 54%
    11:00 +3°C° 0 mm 1 mps 613 mmHg 53%
    12:00 +4°C° 0 mm 1 mps 614 mmHg 53%
    13:00 +4°C° 0 mm 1 mps 614 mmHg 55%
    14:00 +3°C° 0 mm 1 mps 614 mmHg 57%
    15:00 +3°C° 0 mm 1 mps 613 mmHg 58%
    16:00 +2°C° 0 mm 1 mps 613 mmHg 61%
    17:00 +1°C° 0 mm 1 mps 613 mmHg 63%
    18:00 0°C° 0 mm 1 mps 613 mmHg 66%
    19:00 -1°C° 0 mm 1 mps 614 mmHg 66%
    20:00 -1°C° 0 mm 1 mps 614 mmHg 66%
    21:00 -1°C° 0 mm 1 mps 614 mmHg 66%
    22:00 -1°C° 0 mm 1 mps 614 mmHg 65%
    23:00 -1°C° 0 mm 1 mps 614 mmHg 64%

    16 December, Saturday

    Time Temperature Precipitation Wind Pressure Humidity
    00:00 -1°C° 0 mm 1 mps 614 mmHg 64%
    01:00 -1°C° 0 mm 1 mps 614 mmHg 63%
    02:00 -3°C° 0 mm 2 mps 614 mmHg 62%
    03:00 -3°C° 0 mm 2 mps 614 mmHg 61%
    04:00 -4°C° 0 mm 2 mps 614 mmHg 61%
    05:00 -4°C° 0 mm 2 mps 614 mmHg 60%
    06:00 -4°C° 0 mm 2 mps 614 mmHg 60%
    07:00 -3°C° 0 mm 2 mps 614 mmHg 59%
    08:00 -3°C° 0 mm 2 mps 615 mmHg 58%
    09:00 -2°C° 0 mm 2 mps 615 mmHg 57%
    10:00 -1°C° 0 mm 2 mps 615 mmHg 56%
    11:00 +2°C° 0 mm 2 mps 615 mmHg 55%
    12:00 +3°C° 0 mm 2 mps 615 mmHg 54%
    13:00 +3°C° 0 mm 2 mps 615 mmHg 55%
    14:00 +3°C° 0 mm 2 mps 615 mmHg 56%
    15:00 +3°C° 0 mm 2 mps 615 mmHg 57%
    16:00 +1°C° 0 mm 2 mps 615 mmHg 57%
    17:00 -1°C° 0 mm 2 mps 615 mmHg 58%
    18:00 -3°C° 0 mm 2 mps 614 mmHg 59%
    19:00 -3°C° 0 mm 2 mps 615 mmHg 57%
    20:00 -3°C° 0 mm 2 mps 615 mmHg 56%
    21:00 -3°C° 0 mm 2 mps 615 mmHg 54%
    22:00 -3°C° 0 mm 2 mps 615 mmHg 53%
    23:00 -3°C° 0 mm 2 mps 615 mmHg 52%

    17 December, Sunday

    Time Temperature Precipitation Wind Pressure Humidity
    00:00 -3°C° 0 mm 2 mps 615 mmHg 51%
    01:00 -4°C° 0 mm 2 mps 615 mmHg 51%
    02:00 -4°C° 0 mm 2 mps 615 mmHg 50%
    03:00 -4°C° 0 mm 2 mps 615 mmHg 50%
    04:00 -4°C° 0 mm 2 mps 615 mmHg 49%
    05:00 -4°C° 0 mm 2 mps 615 mmHg 48%
    06:00 -4°C° 0 mm 2 mps 614 mmHg 47%
    07:00 -3°C° 0 mm 2 mps 615 mmHg 47%
    08:00 -2°C° 0 mm 2 mps 615 mmHg 46%
    09:00 -2°C° 0 mm 2 mps 615 mmHg 46%
    10:00 +1°C° 0 mm 2 mps 615 mmHg 46%
    11:00 +2°C° 0 mm 2 mps 615 mmHg 46%
    12:00 +4°C° 0 mm 2 mps 616 mmHg 46%
    13:00 +4°C° 0 mm 2 mps 615 mmHg 48%
    14:00 +3°C° 0 mm 2 mps 615 mmHg 49%
    15:00 +3°C° 0 mm 2 mps 615 mmHg 51%
    16:00 +2°C° 0 mm 2 mps 614 mmHg 51%
    17:00 +1°C° 0 mm 2 mps 614 mmHg 51%
    18:00 -2°C° 0 mm 2 mps 614 mmHg 51%
    19:00 -2°C° 0 mm 2 mps 614 mmHg 51%
    20:00 -2°C° 0 mm 2 mps 614 mmHg 50%
    21:00 -2°C° 0 mm 2 mps 614 mmHg 50%
    22:00 -2°C° 0 mm 2 mps 615 mmHg 50%
    23:00 -2°C° 0 mm 2 mps 615 mmHg 50%
    Show more